| time (UTC) | temp F | wind direction | speed MPH | gust MPH | rain 1hr in | rain 24hr in | rain mn in | humidity % | barometer mb |
| 20260503023035 | 61 | 78 | 0.0 | 3.0 | 0.00 | 0.00 | 0.00 | 40 | 876.5 |
| 20260503021538 | 62 | 94 | 2.0 | 6.0 | 0.00 | 0.00 | 0.00 | 41 | 876.4 |
| 20260503020033 | 63 | 100 | 3.0 | 7.0 | 0.00 | 0.00 | 0.00 | 56 | 876.4 |
| 20260503014535 | 64 | 104 | 3.0 | 7.0 | 0.00 | 0.00 | 0.00 | 62 | 876.4 |
| 20260503013032 | 65 | 157 | 7.0 | 13.0 | 0.00 | 0.00 | 0.00 | 54 | 876.3 |
| 20260503011533 | 65 | 141 | 6.0 | 13.0 | 0.00 | 0.00 | 0.00 | 50 | 876.2 |
| 20260503010032 | 67 | 129 | 7.0 | 13.0 | 0.00 | 0.00 | 0.00 | 62 | 876.2 |
| 20260503004531 | 68 | 163 | 7.0 | 13.0 | 0.00 | 0.00 | 0.00 | 60 | 876.2 |
| 20260503003030 | 69 | 175 | 8.0 | 13.0 | 0.00 | 0.00 | 0.00 | 58 | 876.2 |
| 20260503001529 | 70 | 132 | 6.0 | 13.0 | 0.00 | 0.00 | 0.00 | 57 | 876.2 |
| 20260503000033 | 70 | 165 | 9.0 | 16.0 | 0.00 | 0.00 | 0.00 | 48 | 876.1 |
| 20260502234529 | 72 | 156 | 7.0 | 14.0 | 0.00 | 0.00 | 0.00 | 48 | 876.1 |
| 20260502233026 | 72 | 148 | 7.0 | 14.0 | 0.00 | 0.00 | 0.00 | 45 | 876.2 |
| 20260502231526 | 72 | 147 | 9.0 | 13.0 | 0.00 | 0.00 | 0.00 | 40 | 876.2 |
| 20260502230025 | 71 | 109 | 9.0 | 16.0 | 0.00 | 0.00 | 0.00 | 49 | 876.4 |
| 20260502224524 | 72 | 144 | 11.0 | 17.0 | 0.00 | 0.00 | 0.00 | 45 | 876.4 |
| 20260502223022 | 73 | 137 | 7.0 | 15.0 | 0.00 | 0.00 | 0.00 | 41 | 876.8 |
| 20260502221521 | 73 | 137 | 7.0 | 12.0 | 0.00 | 0.00 | 0.00 | 41 | 877.0 |
| 20260502220022 | 73 | 131 | 9.0 | 17.0 | 0.00 | 0.00 | 0.00 | 48 | 877.1 |
| 20260502214517 | 75 | 157 | 3.0 | 11.0 | 0.00 | 0.00 | 0.00 | 30 | 877.6 |
| 20260502213033 | 73 | 234 | 3.0 | 12.0 | 0.00 | 0.00 | 0.00 | 22 | 877.6 |
| 20260502211513 | 74 | 262 | 10.0 | 18.0 | 0.00 | 0.00 | 0.00 | 32 | 877.4 |
| 20260502210014 | 73 | 301 | 12.0 | 17.0 | 0.00 | 0.00 | 0.00 | 31 | 877.4 |
| 20260502204512 | 74 | 291 | 10.0 | 16.0 | 0.00 | 0.00 | 0.00 | 22 | 877.7 |
| 20260502203011 | 73 | 306 | 12.0 | 18.0 | 0.00 | 0.00 | 0.00 | 23 | 877.8 |
| 20260502201522 | 74 | 310 | 10.0 | 16.0 | 0.00 | 0.00 | 0.00 | 27 | 877.7 |
| 20260502200010 | 73 | 295 | 11.0 | 17.0 | 0.00 | 0.00 | 0.00 | 28 | 877.9 |
| 20260502194512 | 73 | 261 | 12.0 | 18.0 | 0.00 | 0.00 | 0.00 | 27 | 877.9 |
| 20260502193009 | 73 | 239 | 9.0 | 18.0 | 0.00 | 0.00 | 0.00 | 28 | 878.1 |
| 20260502191508 | 73 | 277 | 9.0 | 18.0 | 0.00 | 0.00 | 0.00 | 25 | 878.3 |
| 20260502190009 | 72 | 261 | 9.0 | 17.0 | 0.00 | 0.00 | 0.00 | 30 | 878.4 |
| 20260502184507 | 73 | 266 | 9.0 | 19.0 | 0.00 | 0.00 | 0.00 | 29 | 878.5 |
| 20260502183003 | 72 | 254 | 10.0 | 18.0 | 0.00 | 0.00 | 0.00 | 28 | 878.4 |
| 20260502181502 | 72 | 270 | 11.0 | 19.0 | 0.00 | 0.00 | 0.00 | 27 | 878.5 |
| 20260502163052 | 70 | 279 | 10.0 | 18.0 | 0.00 | 0.00 | 0.00 | 31 | 878.7 |
| 20260502161550 | 69 | 298 | 12.0 | 19.0 | 0.00 | 0.00 | 0.00 | 30 | 878.6 |
| 20260502151547 | 66 | 277 | 6.0 | 9.0 | 0.00 | 0.00 | 0.00 | 37 | 878.7 |
| 20260502123015 | 42 | 298 | 3.0 | 5.0 | 0.00 | 0.00 | 0.00 | 84 | 877.7 |
| 20260502121515 | 42 | 304 | 4.0 | 6.0 | 0.00 | 0.00 | 0.00 | 85 | 877.7 |
| 20260502114510 | 42 | 293 | 3.0 | 6.0 | 0.00 | 0.00 | 0.00 | 82 | 877.7 |
| 20260502113007 | 43 | 309 | 3.0 | 6.0 | 0.00 | 0.00 | 0.00 | 83 | 877.5 |
| 20260502111506 | 44 | 281 | 4.0 | 6.0 | 0.00 | 0.00 | 0.00 | 82 | 877.5 |
| 20260502110006 | 44 | 283 | 3.0 | 5.0 | 0.00 | 0.00 | 0.00 | 84 | 877.4 |
| 20260502104504 | 43 | 309 | 4.0 | 9.0 | 0.00 | 0.00 | 0.00 | 82 | 877.5 |
| 20260502103004 | 43 | 302 | 2.0 | 6.0 | 0.00 | 0.00 | 0.00 | 81 | 877.4 |
| 20260502101600 | 44 | 275 | 2.0 | 5.0 | 0.00 | 0.00 | 0.00 | 80 | 877.4 |
| 20260502100103 | 44 | 292 | 3.0 | 6.0 | 0.00 | 0.00 | 0.00 | 81 | 877.4 |
| 20260502071531 | 50 | 304 | 0.0 | 0.0 | 0.00 | 0.00 | 0.00 | 71 | 878.1 |
| 20260502070030 | 50 | 304 | 0.0 | 3.0 | 0.00 | 0.00 | 0.00 | 71 | 878.1 |
| 20260502064543 | 51 | 304 | 2.0 | 4.0 | 0.00 | 0.00 | 0.00 | 75 | 878.1 |
| 20260502063034 | 52 | 282 | 3.0 | 4.0 | 0.00 | 0.00 | 0.00 | 75 | 878.2 |
| 20260502061530 | 53 | 296 | 0.0 | 0.0 | 0.00 | 0.00 | 0.00 | 70 | 878.1 |
| 20260502060029 | 54 | 295 | 2.0 | 4.0 | 0.00 | 0.00 | 0.00 | 73 | 878.1 |
| 20260502054530 | 56 | 255 | 0.0 | 6.0 | 0.00 | 0.00 | 0.00 | 71 | 878.0 |
| 20260502053026 | 57 | 113 | 0.0 | 7.0 | 0.00 | 0.00 | 0.00 | 59 | 878.0 |
| 20260502051531 | 57 | 79 | 2.0 | 5.0 | 0.00 | 0.00 | 0.00 | 61 | 877.9 |
| 20260502050026 | 57 | 87 | 2.0 | 5.0 | 0.00 | 0.00 | 0.00 | 64 | 878.0 |
| 20260502044534 | 58 | 132 | 1.0 | 4.0 | 0.00 | 0.00 | 0.00 | 68 | 878.0 |
| 20260502043025 | 57 | 128 | 2.0 | 4.0 | 0.00 | 0.00 | 0.00 | 73 | 877.9 |
| 20260502041527 | 57 | 142 | 2.0 | 4.0 | 0.00 | 0.00 | 0.00 | 72 | 877.7 |
| 20260502040036 | 58 | 107 | 2.0 | 5.0 | 0.00 | 0.00 | 0.00 | 70 | 877.7 |
| 20260502034527 | 58 | 123 | 2.0 | 6.0 | 0.00 | 0.00 | 0.00 | 69 | 877.5 |
| 20260502033023 | 59 | 86 | 3.0 | 7.0 | 0.00 | 0.00 | 0.00 | 69 | 877.4 |
| 20260502031523 | 58 | 119 | 4.0 | 7.0 | 0.00 | 0.00 | 0.00 | 72 | 877.3 |
| 20260502030026 | 58 | 133 | 4.0 | 8.0 | 0.00 | 0.00 | 0.00 | 71 | 877.2 |
| 20260502024525 | 59 | 147 | 3.0 | 8.0 | 0.00 | 0.00 | 0.00 | 69 | 877.1 |